| time (UTC) | temp F | wind direction | speed MPH | gust MPH | rain 1hr in | rain 24hr in | rain mn in | humidity % | barometer mb |
| 20260831230053 | 82 | 246 | 0.0 | 0.0 | 0.00 | 0.04 | 0.01 | 86 | 1013.2 |
| 20260831224541 | 84 | 246 | 0.0 | 0.0 | 0.00 | 0.04 | 0.01 | 82 | 1012.7 |
| 20260831223106 | 84 | 246 | 0.0 | 0.0 | 0.00 | 0.04 | 0.01 | 82 | 1012.4 |
| 20260831221525 | 84 | 246 | 0.0 | 0.0 | 0.00 | 0.04 | 0.01 | 81 | 1012.5 |
| 20260831220018 | 85 | 246 | 0.0 | 0.0 | 0.00 | 0.04 | 0.01 | 79 | 1012.7 |
| 20260831214539 | 86 | 247 | 0.0 | 0.0 | 0.00 | 0.04 | 0.01 | 76 | 1012.4 |
| 20260831213004 | 86 | 247 | 0.0 | 0.0 | 0.00 | 0.04 | 0.01 | 76 | 1012.2 |
| 20260831211526 | 86 | 247 | 0.0 | 0.0 | 0.00 | 0.04 | 0.01 | 75 | 1012.2 |
| 20260831210052 | 87 | 258 | 0.0 | 0.0 | 0.00 | 0.04 | 0.01 | 74 | 1012.0 |
| 20260831204550 | 88 | 231 | 0.0 | 0.0 | 0.00 | 0.04 | 0.01 | 74 | 1012.0 |
| 20260831203010 | 88 | 231 | 0.0 | 0.0 | 0.00 | 0.04 | 0.01 | 75 | 1012.4 |
| 20260831201529 | 86 | 231 | 0.0 | 0.0 | 0.00 | 0.04 | 0.01 | 80 | 1012.6 |
| 20260831200103 | 86 | 231 | 0.0 | 0.0 | 0.00 | 0.06 | 0.01 | 76 | 1013.0 |
| 20260831194558 | 88 | 226 | 0.0 | 0.0 | 0.00 | 0.06 | 0.01 | 72 | 1013.0 |
| 20260831193007 | 87 | 225 | 0.0 | 0.0 | 0.00 | 0.06 | 0.01 | 74 | 1012.8 |
| 20260831191523 | 86 | 223 | 0.0 | 0.0 | 0.00 | 0.06 | 0.01 | 73 | 1012.8 |
| 20260831190055 | 87 | 223 | 0.0 | 0.0 | 0.00 | 0.07 | 0.01 | 67 | 1012.8 |
| 20260831184535 | 88 | 283 | 0.0 | 0.0 | 0.00 | 0.07 | 0.01 | 67 | 1013.1 |
| 20260831183103 | 88 | 236 | 0.0 | 0.0 | 0.00 | 0.07 | 0.01 | 68 | 1013.1 |
| 20260831181518 | 87 | 241 | 0.0 | 0.0 | 0.00 | 0.07 | 0.01 | 65 | 1013.1 |
| 20260831180046 | 87 | 244 | 0.0 | 0.0 | 0.00 | 0.07 | 0.01 | 66 | 1013.2 |
| 20260831174527 | 86 | 245 | 0.0 | 1.0 | 0.00 | 0.07 | 0.01 | 67 | 1013.2 |
| 20260831173037 | 85 | 136 | 0.0 | 0.0 | 0.00 | 0.07 | 0.01 | 69 | 1013.3 |
| 20260831171552 | 84 | 114 | 0.0 | 1.0 | 0.00 | 0.07 | 0.01 | 72 | 1013.6 |
| 20260831170113 | 83 | 218 | 0.0 | 0.0 | 0.00 | 0.07 | 0.01 | 70 | 1013.9 |
| 20260831164600 | 82 | 249 | 0.0 | 2.0 | 0.00 | 0.07 | 0.01 | 73 | 1014.0 |
| 20260831163016 | 80 | 252 | 0.0 | 1.0 | 0.00 | 0.07 | 0.01 | 75 | 1013.9 |
| 20260831161531 | 80 | 202 | 0.0 | 0.0 | 0.00 | 0.07 | 0.01 | 77 | 1014.0 |
| 20260831160050 | 78 | 113 | 0.0 | 1.0 | 0.00 | 0.07 | 0.01 | 77 | 1014.1 |
| 20260831154546 | 78 | 238 | 0.0 | 0.0 | 0.00 | 0.07 | 0.01 | 79 | 1014.2 |
| 20260831153059 | 76 | 248 | 0.0 | 0.0 | 0.00 | 0.07 | 0.01 | 81 | 1014.3 |
| 20260831153004 | 76 | 90 | 0.0 | 0.0 | 0.00 | 0.07 | 0.01 | 80 | 1014.3 |
| 20260831151519 | 76 | 263 | 0.0 | 1.0 | 0.00 | 0.07 | 0.01 | 82 | 1014.3 |
| 20260831150042 | 75 | 255 | 0.0 | 5.0 | 0.00 | 0.07 | 0.01 | 84 | 1014.4 |
| 20260831144529 | 74 | 207 | 0.0 | 0.0 | 0.00 | 0.07 | 0.01 | 85 | 1014.4 |
| 20260831143040 | 73 | 128 | 0.0 | 1.0 | 0.00 | 0.07 | 0.01 | 85 | 1014.3 |
| 20260831141504 | 73 | 103 | 0.0 | 3.0 | 0.00 | 0.07 | 0.01 | 86 | 1014.1 |
| 20260831140119 | 72 | 209 | 0.0 | 0.0 | 0.00 | 0.07 | 0.01 | 87 | 1014.2 |
| 20260831134508 | 71 | 172 | 0.0 | 0.0 | 0.00 | 0.07 | 0.01 | 88 | 1014.2 |
| 20260831133034 | 71 | 118 | 0.0 | 0.0 | 0.00 | 0.07 | 0.01 | 88 | 1014.3 |
| 20260831131554 | 70 | 134 | 0.0 | 0.0 | 0.00 | 0.07 | 0.01 | 88 | 1014.3 |
| 20260831130120 | 70 | 238 | 0.0 | 0.0 | 0.00 | 0.11 | 0.01 | 89 | 1014.1 |
| 20260831124522 | 70 | 152 | 0.0 | 0.0 | 0.01 | 0.11 | 0.01 | 89 | 1014.1 |
| 20260831123040 | 69 | 209 | 0.0 | 0.0 | 0.01 | 0.11 | 0.01 | 90 | 1014.1 |
| 20260831121558 | 69 | 224 | 0.0 | 0.0 | 0.01 | 0.11 | 0.01 | 91 | 1014.1 |
| 20260831120117 | 69 | 212 | 0.0 | 0.0 | 0.01 | 0.14 | 0.01 | 90 | 1014.0 |
| 20260831114510 | 69 | 238 | 0.0 | 0.0 | 0.00 | 0.13 | 0.00 | 90 | 1013.7 |
| 20260831113034 | 69 | 238 | 0.0 | 0.0 | 0.00 | 0.13 | 0.00 | 90 | 1013.6 |
| 20260831111545 | 69 | 238 | 0.0 | 0.0 | 0.00 | 0.13 | 0.00 | 90 | 1013.4 |
| 20260831110113 | 69 | 239 | 0.0 | 0.0 | 0.00 | 0.14 | 0.13 | 89 | 1013.3 |
| 20260831104610 | 70 | 210 | 0.0 | 1.0 | 0.00 | 0.14 | 0.13 | 88 | 1013.4 |
| 20260831104511 | 70 | 210 | 0.0 | 1.0 | 0.00 | 0.14 | 0.13 | 88 | 1013.4 |
| 20260831103024 | 70 | 204 | 0.0 | 0.0 | 0.00 | 0.14 | 0.13 | 88 | 1013.5 |
| 20260831101556 | 70 | 139 | 0.0 | 0.0 | 0.00 | 0.14 | 0.13 | 89 | 1013.4 |
| 20260831100129 | 70 | 138 | 0.0 | 0.0 | 0.00 | 0.14 | 0.13 | 90 | 1013.5 |
| 20260831094504 | 70 | 138 | 0.0 | 0.0 | 0.00 | 0.14 | 0.13 | 90 | 1013.4 |
| 20260831093031 | 70 | 192 | 0.0 | 0.0 | 0.00 | 0.14 | 0.13 | 90 | 1013.4 |
| 20260831091542 | 70 | 192 | 0.0 | 0.0 | 0.00 | 0.14 | 0.13 | 90 | 1013.5 |
| 20260831090104 | 70 | 199 | 0.0 | 0.0 | 0.00 | 0.14 | 0.13 | 90 | 1013.5 |
| 20260831084604 | 70 | 199 | 0.0 | 0.0 | 0.00 | 0.14 | 0.13 | 91 | 1013.5 |
| 20260831084505 | 70 | 198 | 0.0 | 0.0 | 0.00 | 0.14 | 0.13 | 91 | 1013.5 |
| 20260831083039 | 70 | 198 | 0.0 | 0.0 | 0.00 | 0.14 | 0.13 | 91 | 1013.4 |
| 20260831081554 | 70 | 198 | 0.0 | 0.0 | 0.00 | 0.14 | 0.13 | 92 | 1013.5 |
| 20260831080113 | 70 | 199 | 0.0 | 0.0 | 0.00 | 0.14 | 0.13 | 92 | 1013.4 |
| 20260831074516 | 70 | 199 | 0.0 | 0.0 | 0.00 | 0.14 | 0.13 | 92 | 1013.5 |
| 20260831073034 | 70 | 198 | 0.0 | 0.0 | 0.00 | 0.14 | 0.13 | 92 | 1013.7 |
| 20260831071553 | 70 | 199 | 0.0 | 0.0 | 0.00 | 0.14 | 0.13 | 92 | 1014.0 |
| 20260831070120 | 70 | 198 | 0.0 | 0.0 | 0.00 | 0.14 | 0.13 | 92 | 1014.0 |
| 20260831064519 | 71 | 198 | 0.0 | 0.0 | 0.00 | 0.14 | 0.13 | 92 | 1013.9 |
| 20260831063041 | 71 | 199 | 0.0 | 0.0 | 0.00 | 0.14 | 0.13 | 92 | 1013.9 |
| 20260831061504 | 71 | 199 | 0.0 | 0.0 | 0.00 | 0.14 | 0.13 | 92 | 1013.8 |
| 20260831060004 | 71 | 199 | 0.0 | 0.0 | 0.00 | 0.14 | 0.13 | 92 | 1013.9 |
| 20260831054525 | 72 | 199 | 0.0 | 0.0 | 0.00 | 0.14 | 0.13 | 93 | 1014.0 |
| 20260831053038 | 72 | 198 | 0.0 | 0.0 | 0.00 | 0.14 | 0.13 | 93 | 1013.9 |
| 20260831051508 | 72 | 147 | 0.0 | 0.0 | 0.00 | 0.14 | 0.13 | 93 | 1013.9 |
| 20260831050123 | 72 | 148 | 0.0 | 0.0 | 0.00 | 0.14 | 0.13 | 93 | 1014.0 |
| 20260831044519 | 72 | 148 | 0.0 | 0.0 | 0.00 | 0.14 | 0.13 | 94 | 1014.1 |
| 20260831043029 | 72 | 148 | 0.0 | 0.0 | 0.00 | 0.14 | 0.13 | 94 | 1014.3 |
| 20260831041603 | 72 | 147 | 0.0 | 0.0 | 0.00 | 0.14 | 0.13 | 94 | 1014.4 |
| 20260831040113 | 72 | 147 | 0.0 | 0.0 | 0.00 | 0.14 | 0.13 | 94 | 1014.5 |
| 20260831034517 | 72 | 147 | 0.0 | 0.0 | 0.00 | 0.14 | 0.13 | 94 | 1014.7 |
| 20260831033034 | 72 | 155 | 0.0 | 0.0 | 0.00 | 0.14 | 0.13 | 95 | 1014.6 |
| 20260831031552 | 72 | 195 | 0.0 | 0.0 | 0.01 | 0.14 | 0.13 | 95 | 1014.9 |
| 20260831031504 | 72 | 195 | 0.0 | 0.0 | 0.01 | 0.14 | 0.13 | 95 | 1015.0 |
| 20260831030119 | 72 | 195 | 0.0 | 0.0 | 0.01 | 0.14 | 0.13 | 94 | 1015.2 |
| 20260831024519 | 72 | 195 | 0.0 | 0.0 | 0.01 | 0.14 | 0.13 | 94 | 1015.4 |
| 20260831023036 | 72 | 195 | 0.0 | 0.0 | 0.01 | 0.14 | 0.13 | 94 | 1015.1 |
| 20260831021603 | 72 | 236 | 0.0 | 0.0 | 0.00 | 0.13 | 0.12 | 94 | 1015.4 |
| 20260831021503 | 72 | 236 | 0.0 | 0.0 | 0.01 | 0.13 | 0.12 | 94 | 1015.3 |
| 20260831020122 | 72 | 236 | 0.0 | 0.0 | 0.01 | 0.13 | 0.12 | 94 | 1015.2 |
| 20260831014534 | 72 | 235 | 0.0 | 0.0 | 0.01 | 0.13 | 0.12 | 94 | 1015.1 |
| 20260831013053 | 72 | 236 | 0.0 | 0.0 | 0.01 | 0.13 | 0.12 | 94 | 1015.3 |
| 20260831011521 | 72 | 236 | 0.0 | 0.0 | 0.00 | 0.12 | 0.11 | 93 | 1015.0 |
| 20260831010022 | 72 | 235 | 0.0 | 0.0 | 0.00 | 0.12 | 0.11 | 93 | 1014.8 |
| 20260831004540 | 72 | 236 | 0.0 | 0.0 | 0.00 | 0.12 | 0.11 | 93 | 1015.0 |
| 20260831003004 | 73 | 236 | 0.0 | 0.0 | 0.00 | 0.12 | 0.11 | 92 | 1014.6 |
| 20260831001524 | 73 | 236 | 0.0 | 0.0 | 0.00 | 0.12 | 0.11 | 92 | 1014.5 |
| 20260831000048 | 73 | 213 | 0.0 | 0.0 | 0.00 | 0.12 | 0.11 | 93 | 1014.4 |
| 20260830234544 | 73 | 131 | 0.0 | 0.0 | 0.00 | 0.12 | 0.11 | 93 | 1014.6 |
| 20260830233107 | 73 | 112 | 0.0 | 0.0 | 0.00 | 0.12 | 0.11 | 93 | 1014.9 |
| 20260830231529 | 73 | 172 | 0.0 | 0.0 | 0.01 | 0.12 | 0.11 | 92 | 1014.7 |